This demonstration page uses our WeatherBlox Daily Observations layout. Learn more.

Left ArrowRight Arrow

30.21309, -93.2044

Hourly Observations for August 29, 2022

Temp ( °F °C ) Dew Point ( °F °C ) Humidity (%) Winds ( mph kmh ) Pressure ( in mb ) Visibility ( mi km ) Precip ( " mm )
12:15 am 00:15 Clear 75 24 73 22.9 94 94 E 7 11 29.88 1012 10 16 0.00 0.00
12:35 am 00:35 Clear 75 23.9 73 22.7 93 93 E 5 7 29.90 1013 10 16 0.00 0.00
12:55 am 00:55 Clear 75 23.8 73 22.6 93 93 ESE 3 6 29.91 1013 10 16 0.00 0.00
1:15 am 01:15 Clear 75 23.8 73 22.7 94 94 SE 5 7 29.92 1013 10 16 0.00 0.00
1:35 am 01:35 Clear 75 23.7 73 22.6 94 94 E 5 7 29.93 1014 10 16 0.00 0.00
1:55 am 01:55 Clear 74 23.6 73 22.6 94 94 ESE 3 6 29.93 1014 10 16 0.00 0.00
2:15 am 02:15 Clear 74 23.5 73 22.5 94 94 E 3 6 29.92 1013 10 16 0.00 0.00
2:35 am 02:35 Clear 74 23.5 73 22.5 94 94 ESE 5 7 29.92 1013 10 16 0.00 0.00
2:55 am 02:55 Clear 74 23.6 73 22.5 94 94 E 6 9 29.92 1013 10 16 0.00 0.00
3:15 am 03:15 Clear 75 23.7 73 22.6 94 94 E 6 9 29.92 1013 10 16 0.00 0.00
3:35 am 03:35 Clear 75 23.7 73 22.6 94 94 E 6 9 29.93 1014 10 16 0.00 0.00
3:55 am 03:55 Clear 75 23.9 73 22.9 94 94 E 6 9 29.92 1013 10 16 0.00 0.00
4:15 am 04:15 Clear 75 24 73 23 94 94 E 7 11 29.92 1013 10 16 0.00 0.00
4:35 am 04:35 Clear 76 24.3 74 23.3 94 94 ESE 8 13 29.92 1013 10 16 0.00 0.00
4:55 am 04:55 Clear 76 24.3 74 23.3 94 94 E 7 11 29.92 1013 10 16 0.00 0.00
5:15 am 05:15 Clear 76 24.4 74 23.4 94 94 ESE 6 9 29.92 1013 10 16 0.00 0.00
5:35 am 05:35 Clear 76 24.5 74 23.5 94 94 E 6 9 29.92 1013 10 16 0.00 0.00
6:00 am 06:00 Mostly Clear 75 24 73 23 94 94 E 6 9 29.92 1013 10 16 0.00 0.00
6:55 am 06:55 Partly Cloudy 75 24 73 23 94 94 E 6 9 29.94 1014 10 16 0.00 0.00
7:50 am 07:50 Mostly Sunny 75 24 73 23 94 94 E 6 9 29.94 1014 10 16 0.00 0.00
8:55 am 08:55 Mostly Cloudy with Light Rain 82 28 73 23 74 74 SE 13 20 29.98 1015 6 10 0.00 0.00
9:45 am 09:45 Partly Cloudy 84 29 79 26 84 84 S 13 20 29.98 1015 10 16 0.00 0.00
10:53 am 10:53 Mostly Cloudy 86 30 75 24 70 70 S 15 24 29.99 1016 10 16 0.00 0.00
11:47 am 11:47 Mostly Cloudy 90 32 75 24 63 63 S 16 26 29.99 1016 10 16 0.00 0.00
12:45 pm 12:45 Mostly Cloudy 90 32 75 24 63 63 S 12 19 29.98 1015 10 16 0.00 0.00
1:50 pm 13:50 Partly Cloudy 91 33 75 24 59 59 S 13 20 29.96 1014 10 16 0.00 0.00
2:46 pm 14:46 Partly Cloudy with Rain 90 32 73 23 59 59 SSE 13 20 29.95 1014 5 8 0.00 0.00
3:50 pm 15:50 Partly Cloudy with Light Showers 88 31 77 25 71 71 S 13 20 29.94 1014 10 16 0.00 0.00
4:45 pm 16:45 Partly Cloudy 90 32 77 25 67 67 SSW 15 24 29.94 1014 10 16 0.00 0.00
5:55 pm 17:55 Partly Cloudy 84 29 75 24 74 74 S 9 15 29.95 1014 10 16 0.00 0.00
6:45 pm 18:45 Partly Cloudy 82 28 75 24 79 79 SW 8 13 29.96 1014 10 16 0.00 0.00
7:49 pm 19:49 Mostly Clear 81 27 75 24 84 84 Calm 29.95 1014 10 16 0.00 0.00
8:45 pm 20:45 Mostly Clear 79 26 75 24 89 89 Calm 29.93 1013 10 16 0.00 0.00
9:45 pm 21:45 Mostly Clear 79 26 75 24 89 89 Calm 29.93 1013 10 16 0.00 0.00
10:15 pm 22:15 Clear 79 26 75 24.1 89 89 ENE 3 6 29.94 1014 10 16 0.00 0.00
10:35 pm 22:35 Clear 79 25.9 75 24.1 90 90 Calm 29.95 1014 10 16 0.00 0.00
10:55 pm 22:55 Clear 79 26 76 24.2 90 90 Calm 29.95 1014 10 16 0.00 0.00
11:15 pm 23:15 Clear 78 25.8 76 24.2 91 91 Calm 29.96 1014 10 16 0.00 0.00
11:35 pm 23:35 Partly Cloudy 77 25 75 24 94 94 N 3 6 29.97 1015 10 16 0.00 0.00
11:55 pm 23:55 Mostly Cloudy 78 25.5 75 24 91 91 NNW 3 6 29.97 1015 10 16 0.00 0.00

Powered by AerisWeather